Samui, Thailand

3:26 AM +07 on December 12, 2018 (GMT +0700)
Samui

Weather History for VTSM - March, 2018

Change the Weather History Date:

Wednesday, March 14, 2018

  Actual Average Record
Temperature  
Mean Temperature 84 °F -  
Max Temperature 87 °F - - ()
Min Temperature 82 °F - - ()
Cooling Degree Days 20    
Growing Degree Days 34 (Base 50)    
Moisture  
Dew Point 75 °F    
Average Humidity 72    
Maximum Humidity 84    
Minimum Humidity 66    
Precipitation  
Precipitation 0.00 in - - ()
Sea Level Pressure  
Sea Level Pressure 29.85 in    
Wind  
Wind Speed 8 mph ()    
Max Wind Speed 14 mph    
Max Gust Speed -    
Visibility 5.3 miles    
Events      
T = Trace of Precipitation, MM = Missing Value Source: Averaged Metar Reports

Daily Weather History Graph

Daily Weather History Graph

Search for Another Location

Airport or City:

Astronomy

Mar. 14, 2018 Rise Set
Actual Time 6:27 AM +07 6:30 PM +07
Civil Twilight 6:06 AM +07 6:51 PM +07
Nautical Twilight 5:42 AM +07 7:15 PM +07
Astronomical Twilight 5:17 AM +07 7:40 PM +07
Moon 3:59 AM +07 (3/14) 3:59 PM +07 (3/14)
Length of Visible Light 12h 45m
Length of Day
12h 03m
Waning Crescent, 11% of the Moon is Illuminated
Mar 14
Waning Crescent
Mar 17
New
Mar 24
First Quarter
Mar 31
Full
Apr 8
Last Quarter

Hourly Weather History & Observations

Time (+07) Temp. Heat Index Dew Point Humidity Pressure Visibility Wind Dir Wind Speed Gust Speed Precip Events Conditions
5:00 AM 82.4 °F 88.2 °F 73.4 °F 74% 29.83 in 5.6 mi SSE 10.4 mph - N/A   Partly Cloudy
5:30 AM 82.4 °F 88.2 °F 73.4 °F 74% 29.86 in 5.6 mi SSE 6.9 mph - N/A   Partly Cloudy
6:00 AM 82.4 °F 89.5 °F 75.2 °F 79% 29.86 in 5.6 mi SSE 8.1 mph - N/A   Partly Cloudy
7:00 AM 82.4 °F 89.5 °F 75.2 °F 79% 29.86 in 5.6 mi SSE 8.1 mph - N/A   Partly Cloudy
7:30 AM 82.4 °F 89.5 °F 75.2 °F 79% 29.89 in 5.6 mi SSE 10.4 mph - N/A   Partly Cloudy
8:00 AM 84.2 °F 92.3 °F 75.2 °F 74% 29.89 in 5.6 mi SSE 13.8 mph - N/A   Partly Cloudy
8:30 AM 84.2 °F 94.1 °F 77.0 °F 79% 29.92 in 5.6 mi SSE 11.5 mph - N/A   Partly Cloudy
9:00 AM 86.0 °F 95.1 °F 75.2 °F 70% 29.92 in 5.6 mi SSE 11.5 mph - N/A   Partly Cloudy
9:30 AM 86.0 °F 95.1 °F 75.2 °F 70% 29.92 in 5.6 mi SSE 11.5 mph - N/A   Partly Cloudy
10:00 AM 86.0 °F 95.1 °F 75.2 °F 70% 29.92 in 5.6 mi SSE 9.2 mph - N/A   Partly Cloudy
10:30 AM 87.8 °F 97.6 °F 75.2 °F 66% 29.92 in 5.6 mi SSE 8.1 mph - N/A   Partly Cloudy
11:00 AM 86.0 °F 95.1 °F 75.2 °F 70% 29.92 in 5.6 mi SE 8.1 mph - N/A   Partly Cloudy
12:00 PM 87.8 °F 97.6 °F 75.2 °F 66% 29.89 in 5.6 mi SSE 6.9 mph - N/A   Partly Cloudy
12:30 PM 87.8 °F 97.6 °F 75.2 °F 66% 29.89 in 5.6 mi SSE 6.9 mph - N/A   Partly Cloudy
1:00 PM 87.8 °F 97.6 °F 75.2 °F 66% 29.86 in 5.6 mi SSE 8.1 mph - N/A   Partly Cloudy
1:30 PM 87.8 °F 97.6 °F 75.2 °F 66% 29.86 in 5.6 mi SE 6.9 mph - N/A   Partly Cloudy
2:00 PM 87.8 °F 97.6 °F 75.2 °F 66% 29.83 in 5.6 mi SSE 6.9 mph - N/A   Partly Cloudy
2:30 PM 87.8 °F 97.6 °F 75.2 °F 66% 29.83 in 5.0 mi SSE 8.1 mph - N/A   Partly Cloudy
3:00 PM 87.8 °F 97.6 °F 75.2 °F 66% 29.80 in 5.0 mi SE 6.9 mph - N/A   Partly Cloudy
3:30 PM 87.8 °F 97.6 °F 75.2 °F 66% 29.80 in 5.0 mi SSE 8.1 mph - N/A   Partly Cloudy
4:00 PM 86.0 °F 95.1 °F 75.2 °F 70% 29.80 in 5.0 mi SSE 8.1 mph - N/A   Partly Cloudy
4:30 PM 86.0 °F 95.1 °F 75.2 °F 70% 29.80 in 5.0 mi SSE 6.9 mph - N/A   Partly Cloudy
5:00 PM 86.0 °F 95.1 °F 75.2 °F 70% 29.80 in 5.0 mi SE 6.9 mph - N/A   Partly Cloudy
5:30 PM 86.0 °F 95.1 °F 75.2 °F 70% 29.80 in 5.0 mi SE 8.1 mph - N/A   Partly Cloudy
6:00 PM 84.2 °F 92.3 °F 75.2 °F 74% 29.80 in 5.0 mi SE 6.9 mph - N/A   Partly Cloudy
6:30 PM 84.2 °F 92.3 °F 75.2 °F 74% 29.80 in 5.0 mi SSE 8.1 mph - N/A   Partly Cloudy
7:00 PM 84.2 °F 92.3 °F 75.2 °F 74% 29.83 in 5.0 mi SE 5.8 mph - N/A   Partly Cloudy
7:30 PM 84.2 °F 92.3 °F 75.2 °F 74% 29.83 in 5.0 mi SE 5.8 mph - N/A   Partly Cloudy
8:00 PM 82.4 °F 89.5 °F 75.2 °F 79% 29.83 in 5.0 mi SE 8.1 mph - N/A   Partly Cloudy
8:30 PM 82.4 °F 89.5 °F 75.2 °F 79% 29.83 in 5.0 mi SE 8.1 mph - N/A   Partly Cloudy
9:00 PM 82.4 °F 89.5 °F 75.2 °F 79% 29.83 in 5.0 mi SSE 10.4 mph - N/A   Partly Cloudy
9:30 PM 82.4 °F 90.9 °F 77.0 °F 84% 29.83 in 5.0 mi SSE 10.4 mph - N/A   Partly Cloudy
10:00 PM 82.4 °F 89.5 °F 75.2 °F 79% 29.86 in 5.0 mi SSE 10.4 mph - N/A   Partly Cloudy